EIN395 EDDH-EIDW

Flight info

Callsign EIN395
Flight time 1h 41m
Altitude 34000
Route WSN4B WSN N125 ITMIZ DCT AMGOD L602 MIMVA DCT OTBED L60 PENIL UL28 LELDO M145 BAGSO BAGSO4L
Aircraft A320/M-SDE3FGHIRWY/LB1

Departure

Time 2026-05-03 21:45
Airport Hamburg Helmut Schmidt Airport (EDDH)

Arrival

Time 2026-05-03 23:27
Airport Dublin Airport (EIDW)
Time Latitude Longitude Altitude Speed Heading
2026-05-03 21:18 53.63168 10.00368 49 ft 0 kts 86°
2026-05-03 21:38 53.63167 10.00360 48 ft 3 kts 86°
2026-05-03 21:39 53.63166 10.00322 48 ft 2 kts 86°
2026-05-03 21:39 53.63162 10.00281 46 ft 4 kts 63°
2026-05-03 21:39 53.63147 10.00255 43 ft 3 kts
2026-05-03 21:39 53.63142 10.00255 43 ft 0 kts 356°
2026-05-03 21:43 53.63149 10.00254 43 ft 7 kts 356°
2026-05-03 21:43 53.63280 10.00242 48 ft 23 kts 356°
2026-05-03 21:43 53.63437 10.00221 46 ft 21 kts 355°
2026-05-03 21:43 53.63524 10.00250 47 ft 10 kts 37°
2026-05-03 21:44 53.63581 10.00274 49 ft 8 kts 340°
2026-05-03 21:44 53.63610 10.00240 51 ft 2 kts 321°
2026-05-03 21:44 53.63642 10.00194 53 ft 11 kts 318°
2026-05-03 21:44 53.63653 10.00070 51 ft 13 kts 235°
2026-05-03 21:45 53.63540 9.99836 50 ft 56 kts 231°
2026-05-03 21:45 53.63133 9.99011 46 ft 123 kts 230°
2026-05-03 21:45 53.62505 9.97691 209 ft 157 kts 233°
2026-05-03 21:45 53.61820 9.96297 965 ft 153 kts 231°
2026-05-03 21:46 53.61120 9.94902 1597 ft 162 kts 233°
2026-05-03 21:46 53.60356 9.93331 1958 ft 186 kts 233°
2026-05-03 21:46 53.59510 9.91589 2591 ft 196 kts 233°
2026-05-03 21:46 53.58639 9.89806 3411 ft 198 kts 233°
2026-05-03 21:47 53.57754 9.88003 4251 ft 200 kts 233°
2026-05-03 21:47 53.56886 9.86165 5092 ft 201 kts 239°
2026-05-03 21:47 53.56286 9.83970 5680 ft 217 kts 249°
2026-05-03 21:47 53.55742 9.81488 6113 ft 240 kts 250°
2026-05-03 21:48 53.55158 9.78784 6828 ft 250 kts 250°
2026-05-03 21:48 53.54558 9.76007 7693 ft 255 kts 250°
2026-05-03 21:48 53.53945 9.73183 8563 ft 259 kts 250°
2026-05-03 21:48 53.53316 9.70314 9431 ft 264 kts 249°
2026-05-03 21:49 53.52672 9.67391 10194 ft 272 kts 249°
2026-05-03 21:49 53.51986 9.64280 10487 ft 296 kts 249°
2026-05-03 21:49 53.51253 9.60959 10993 ft 308 kts 249°
2026-05-03 21:49 53.50511 9.57602 11742 ft 313 kts 249°
2026-05-03 21:50 53.49748 9.54164 12561 ft 316 kts 249°
2026-05-03 21:50 53.48979 9.50692 13356 ft 319 kts 249°
2026-05-03 21:50 53.48201 9.47184 14110 ft 322 kts 249°
2026-05-03 21:50 53.47413 9.43652 14809 ft 324 kts 248°
2026-05-03 21:51 53.46615 9.40094 15507 ft 327 kts 248°
2026-05-03 21:51 53.45810 9.36503 16201 ft 330 kts 248°
2026-05-03 21:51 53.44999 9.32887 16893 ft 333 kts 248°
2026-05-03 21:51 53.44184 9.29241 17594 ft 336 kts 248°
2026-05-03 21:52 53.43358 9.25558 18254 ft 339 kts 247°
2026-05-03 21:52 53.42534 9.21900 18831 ft 341 kts 247°
2026-05-03 21:52 53.41690 9.18166 19433 ft 344 kts 247°
2026-05-03 21:52 53.40840 9.14404 20038 ft 346 kts 246°
2026-05-03 21:53 53.39984 9.10619 20643 ft 348 kts 246°
2026-05-03 21:53 53.39122 9.06809 21232 ft 351 kts 246°
2026-05-03 21:53 53.38252 9.02974 21822 ft 354 kts 246°
2026-05-03 21:53 53.37374 8.99107 22425 ft 356 kts 245°
2026-05-03 21:54 53.36487 8.95222 23018 ft 359 kts 245°
2026-05-03 21:54 53.35592 8.91312 23577 ft 361 kts 245°
2026-05-03 21:54 53.34703 8.87425 24040 ft 363 kts 245°
2026-05-03 21:54 53.33806 8.83458 24485 ft 366 kts 245°
2026-05-03 21:55 53.32917 8.79449 24942 ft 369 kts 245°
2026-05-03 21:55 53.32029 8.75413 25370 ft 371 kts 246°
2026-05-03 21:55 53.31136 8.71348 25789 ft 374 kts 246°
2026-05-03 21:55 53.30233 8.67247 26180 ft 377 kts 246°
2026-05-03 21:56 53.29323 8.63122 26579 ft 380 kts 246°
2026-05-03 21:56 53.28412 8.58964 26974 ft 382 kts 246°
2026-05-03 21:56 53.27499 8.54785 27377 ft 384 kts 246°
2026-05-03 21:56 53.26590 8.50639 27765 ft 386 kts 246°
2026-05-03 21:57 53.25699 8.46393 28154 ft 389 kts 248°
2026-05-03 21:57 53.24866 8.42082 28545 ft 391 kts 249°
2026-05-03 21:57 53.24064 8.37729 28919 ft 394 kts 249°
2026-05-03 21:57 53.23271 8.33347 29280 ft 396 kts 249°
2026-05-03 21:58 53.22472 8.28943 29632 ft 398 kts 249°
2026-05-03 21:58 53.21657 8.24519 29970 ft 399 kts 249°
2026-05-03 21:58 53.20824 8.20087 30253 ft 401 kts 249°
2026-05-03 21:58 53.19986 8.15704 30555 ft 403 kts 249°
2026-05-03 21:59 53.19129 8.11254 30836 ft 404 kts 249°
2026-05-03 21:59 53.18278 8.06803 31086 ft 406 kts 249°
2026-05-03 21:59 53.17428 8.02303 31333 ft 408 kts 249°
2026-05-03 21:59 53.16579 7.97782 31596 ft 409 kts 249°
2026-05-03 22:00 53.15730 7.93264 31939 ft 408 kts 249°
2026-05-03 22:00 53.14881 7.88763 32286 ft 407 kts 249°
2026-05-03 22:00 53.14027 7.84268 32637 ft 407 kts 249°
2026-05-03 22:00 53.13168 7.79787 32959 ft 406 kts 249°
2026-05-03 22:01 53.12308 7.75314 33296 ft 405 kts 248°
2026-05-03 22:01 53.11461 7.70907 33618 ft 405 kts 248°
2026-05-03 22:01 53.10720 7.66369 33885 ft 409 kts 255°
2026-05-03 22:01 53.10442 7.61674 33944 ft 406 kts 264°
2026-05-03 22:02 53.10311 7.52380 33936 ft 400 kts 264°
2026-05-03 22:02 53.10153 7.43149 33934 ft 399 kts 263°
2026-05-03 22:03 53.09981 7.33995 33931 ft 398 kts 263°
2026-05-03 22:03 53.09798 7.24785 33930 ft 398 kts 263°
2026-05-03 22:04 53.09614 7.15579 33928 ft 398 kts 263°
2026-05-03 22:04 53.09429 7.06367 33934 ft 398 kts 264°
2026-05-03 22:05 53.09232 6.97164 33923 ft 399 kts 264°
2026-05-03 22:05 53.09029 6.88005 33914 ft 399 kts 264°
2026-05-03 22:06 53.08820 6.78791 33910 ft 399 kts 264°
2026-05-03 22:06 53.08597 6.69578 33909 ft 399 kts 264°
2026-05-03 22:07 53.08368 6.60361 33932 ft 399 kts 264°
2026-05-03 22:07 53.08142 6.51187 33914 ft 400 kts 264°
2026-05-03 22:08 53.07905 6.41927 33888 ft 401 kts 264°
2026-05-03 22:08 53.07656 6.32655 33899 ft 401 kts 264°
2026-05-03 22:09 53.07398 6.23392 33911 ft 401 kts 264°
2026-05-03 22:10 53.07002 6.09565 33932 ft 401 kts 264°
2026-05-03 22:10 53.06725 6.00304 33933 ft 401 kts 264°
2026-05-03 22:11 53.06441 5.91034 33936 ft 401 kts 264°
2026-05-03 22:11 53.06155 5.81766 33933 ft 401 kts 264°
2026-05-03 22:12 53.05868 5.72564 33931 ft 401 kts 264°
2026-05-03 22:12 53.05568 5.63290 33931 ft 402 kts 264°
2026-05-03 22:13 53.05254 5.54024 33944 ft 402 kts 263°
2026-05-03 22:13 53.04936 5.44759 33945 ft 401 kts 263°
2026-05-03 22:14 53.04617 5.35496 33945 ft 401 kts 263°
2026-05-03 22:14 53.04282 5.26242 33943 ft 401 kts 263°
2026-05-03 22:15 53.03944 5.17061 33942 ft 401 kts 263°
2026-05-03 22:15 53.03600 5.07824 33949 ft 400 kts 263°
2026-05-03 22:16 53.03250 4.98590 33954 ft 400 kts 263°
2026-05-03 22:16 53.02896 4.89361 33943 ft 400 kts 263°
2026-05-03 22:17 53.02531 4.80206 33936 ft 400 kts 263°
2026-05-03 22:17 53.02158 4.70989 33931 ft 400 kts 263°
2026-05-03 22:18 53.01779 4.61774 33926 ft 400 kts 262°
2026-05-03 22:18 53.01390 4.52554 33928 ft 400 kts 262°
2026-05-03 22:19 53.00999 4.43392 33920 ft 401 kts 262°
2026-05-03 22:19 53.00597 4.34166 33929 ft 401 kts 262°
2026-05-03 22:20 53.00187 4.24940 33925 ft 401 kts 262°
2026-05-03 22:20 52.99770 4.15717 33918 ft 401 kts 262°
2026-05-03 22:21 52.99342 4.06498 33922 ft 401 kts 262°
2026-05-03 22:21 52.98912 3.97336 33943 ft 401 kts 262°
2026-05-03 22:22 52.98515 3.88082 33923 ft 404 kts 267°
2026-05-03 22:22 52.99450 3.78793 33931 ft 410 kts 277°
2026-05-03 22:23 53.00628 3.69521 33930 ft 411 kts 277°
2026-05-03 22:23 53.01805 3.60232 33926 ft 411 kts 277°
2026-05-03 22:24 53.02968 3.50930 33937 ft 412 kts 277°
2026-05-03 22:24 53.04122 3.41594 33912 ft 413 kts 277°
2026-05-03 22:25 53.05264 3.32294 33911 ft 414 kts 277°
2026-05-03 22:25 53.06405 3.22915 33902 ft 414 kts 277°
2026-05-03 22:26 53.07540 3.13528 33905 ft 414 kts 277°
2026-05-03 22:26 53.08674 3.04127 33935 ft 414 kts 277°
2026-05-03 22:27 53.09794 2.94721 33924 ft 415 kts 277°
2026-05-03 22:27 53.10900 2.85364 33920 ft 415 kts 277°
2026-05-03 22:28 53.12010 2.75941 33919 ft 415 kts 276°
2026-05-03 22:28 53.13113 2.66514 33919 ft 415 kts 276°
2026-05-03 22:29 53.14204 2.57080 33921 ft 415 kts 276°
2026-05-03 22:29 53.15292 2.47636 33930 ft 415 kts 276°
2026-05-03 22:30 53.16368 2.38243 33919 ft 416 kts 276°
2026-05-03 22:30 53.17446 2.28772 33918 ft 416 kts 276°
2026-05-03 22:31 53.18518 2.19297 33921 ft 416 kts 276°
2026-05-03 22:31 53.19579 2.09811 33921 ft 416 kts 276°
2026-05-03 22:32 53.20445 2.01925 33938 ft 416 kts 276°
2026-05-03 22:32 53.21489 1.92417 33925 ft 417 kts 276°
2026-05-03 22:33 53.22707 1.81354 33921 ft 417 kts 276°
2026-05-03 22:33 53.23577 1.73364 33920 ft 417 kts 276°
2026-05-03 22:34 53.24596 1.63899 33934 ft 417 kts 276°
2026-05-03 22:34 53.25609 1.54390 33940 ft 415 kts 276°
2026-05-03 22:35 53.26610 1.44898 33946 ft 415 kts 276°
2026-05-03 22:35 53.27609 1.35408 33937 ft 415 kts 276°
2026-05-03 22:36 53.28602 1.25922 33934 ft 415 kts 276°
2026-05-03 22:36 53.29572 1.16482 33940 ft 415 kts 276°
2026-05-03 22:37 53.30546 1.06985 33933 ft 415 kts 276°
2026-05-03 22:37 53.31519 0.97469 33951 ft 415 kts 276°
2026-05-03 22:38 53.32483 0.87969 33941 ft 415 kts 276°
2026-05-03 22:38 53.33437 0.78446 33936 ft 415 kts 276°
2026-05-03 22:39 53.34378 0.68980 33936 ft 415 kts 276°
2026-05-03 22:39 53.35315 0.59438 33944 ft 416 kts 276°
2026-05-03 22:40 53.36243 0.49886 33960 ft 416 kts 276°
2026-05-03 22:40 53.37168 0.40325 33951 ft 416 kts 276°
2026-05-03 22:41 53.38088 0.30752 33951 ft 416 kts 276°
2026-05-03 22:41 53.38987 0.21235 33951 ft 417 kts 276°
2026-05-03 22:42 53.39889 0.11652 33946 ft 416 kts 276°
2026-05-03 22:42 53.40787 0.02068 33947 ft 416 kts 276°
2026-05-03 22:43 53.41681 -0.07514 33958 ft 417 kts 276°
2026-05-03 22:43 53.42559 -0.17126 33948 ft 418 kts 276°
2026-05-03 22:44 53.43421 -0.26696 33949 ft 418 kts 276°
2026-05-03 22:44 53.44295 -0.36346 33959 ft 419 kts 276°
2026-05-03 22:45 53.45163 -0.46012 33963 ft 419 kts 276°
2026-05-03 22:45 53.46011 -0.55685 33963 ft 419 kts 276°
2026-05-03 22:46 53.46857 -0.65357 33968 ft 419 kts 276°
2026-05-03 22:46 53.47692 -0.74967 33968 ft 419 kts 276°
2026-05-03 22:47 53.48525 -0.84646 33965 ft 419 kts 276°
2026-05-03 22:47 53.49347 -0.94329 33967 ft 419 kts 276°
2026-05-03 22:48 53.50162 -1.04012 33984 ft 419 kts 276°
2026-05-03 22:48 53.50968 -1.13711 33980 ft 419 kts 276°
2026-05-03 22:49 53.51761 -1.23357 33972 ft 420 kts 276°
2026-05-03 22:49 53.52556 -1.33073 33978 ft 420 kts 276°
2026-05-03 22:50 53.53341 -1.42799 33982 ft 420 kts 276°
2026-05-03 22:50 53.54122 -1.52524 33990 ft 420 kts 276°
2026-05-03 22:51 53.54885 -1.62187 33993 ft 420 kts 276°
2026-05-03 22:51 53.55647 -1.71932 33988 ft 420 kts 276°
2026-05-03 22:52 53.56402 -1.81676 33988 ft 420 kts 276°
2026-05-03 22:52 53.57149 -1.91430 33982 ft 420 kts 276°
2026-05-03 22:53 53.57892 -2.01185 33981 ft 420 kts 276°
2026-05-03 22:53 53.58621 -2.10870 33973 ft 420 kts 276°
2026-05-03 22:54 53.59340 -2.20630 33967 ft 420 kts 276°
2026-05-03 22:54 53.60052 -2.30386 33971 ft 420 kts 276°
2026-05-03 22:55 53.60764 -2.40194 33935 ft 429 kts 276°
2026-05-03 22:55 53.61120 -2.45182 33571 ft 437 kts 276°
2026-05-03 22:55 53.61482 -2.50270 33218 ft 437 kts 276°
2026-05-03 22:55 53.61845 -2.55343 32867 ft 436 kts 276°
2026-05-03 22:56 53.62206 -2.60394 32513 ft 433 kts 276°
2026-05-03 22:56 53.62559 -2.65417 32147 ft 431 kts 276°
2026-05-03 22:56 53.62903 -2.70408 31784 ft 428 kts 275°
2026-05-03 22:56 53.63223 -2.75115 31440 ft 426 kts 275°
2026-05-03 22:57 53.63559 -2.80057 31083 ft 424 kts 276°
2026-05-03 22:57 53.63893 -2.84977 30668 ft 420 kts 275°
2026-05-03 22:57 53.64217 -2.89774 30163 ft 416 kts 275°
2026-05-03 22:57 53.64542 -2.94592 29570 ft 412 kts 275°
2026-05-03 22:58 53.64864 -2.99368 28956 ft 408 kts 275°
2026-05-03 22:58 53.65181 -3.04106 28347 ft 405 kts 275°
2026-05-03 22:58 53.65493 -3.08814 27750 ft 403 kts 275°
2026-05-03 22:58 53.65802 -3.13488 27170 ft 400 kts 276°
2026-05-03 22:59 53.66108 -3.18145 26557 ft 399 kts 276°
2026-05-03 22:59 53.66412 -3.22774 26002 ft 397 kts 276°
2026-05-03 22:59 53.66710 -3.27387 25573 ft 392 kts 276°
2026-05-03 22:59 53.66998 -3.31890 25337 ft 383 kts 276°
2026-05-03 23:00 53.67278 -3.36274 25116 ft 381 kts 276°
2026-05-03 23:00 53.67571 -3.40880 24856 ft 409 kts 276°
2026-05-03 23:00 53.67880 -3.45783 24618 ft 431 kts 276°
2026-05-03 23:00 53.68202 -3.50927 24368 ft 450 kts 276°
2026-05-03 23:01 53.68539 -3.56278 24129 ft 466 kts 276°
2026-05-03 23:01 53.68880 -3.61778 23880 ft 473 kts 276°
2026-05-03 23:01 53.69215 -3.67270 23638 ft 468 kts 276°
2026-05-03 23:01 53.69544 -3.72701 23372 ft 463 kts 276°
2026-05-03 23:02 53.69867 -3.78095 23098 ft 460 kts 276°
2026-05-03 23:02 53.70185 -3.83441 22835 ft 471 kts 276°
2026-05-03 23:02 53.70513 -3.89015 22558 ft 481 kts 276°
2026-05-03 23:02 53.70838 -3.94561 22335 ft 463 kts 276°
2026-05-03 23:03 53.71141 -3.99756 22066 ft 427 kts 276°
2026-05-03 23:03 53.71420 -4.04573 21800 ft 398 kts 276°
2026-05-03 23:03 53.71679 -4.09078 21532 ft 374 kts 276°
2026-05-03 23:03 53.71889 -4.13367 21273 ft 361 kts 275°
2026-05-03 23:04 53.72057 -4.17568 21010 ft 357 kts 275°
2026-05-03 23:04 53.72204 -4.21742 20752 ft 356 kts 275°
2026-05-03 23:04 53.72342 -4.25862 20496 ft 355 kts 274°
2026-05-03 23:04 53.72483 -4.30013 20252 ft 354 kts 275°
2026-05-03 23:05 53.72628 -4.34155 19999 ft 353 kts 275°
2026-05-03 23:05 53.72774 -4.38276 19748 ft 350 kts 275°
2026-05-03 23:05 53.72922 -4.42373 19504 ft 349 kts 275°
2026-05-03 23:05 53.73072 -4.46450 19259 ft 347 kts 275°
2026-05-03 23:06 53.73220 -4.50512 19019 ft 346 kts 275°
2026-05-03 23:06 53.73365 -4.54560 18778 ft 345 kts 275°
2026-05-03 23:06 53.73505 -4.58596 18539 ft 344 kts 275°
2026-05-03 23:06 53.73639 -4.62568 18307 ft 343 kts 275°
2026-05-03 23:07 53.73774 -4.66576 18062 ft 341 kts 275°
2026-05-03 23:07 53.73908 -4.70564 17984 ft 340 kts 275°
2026-05-03 23:07 53.74041 -4.74553 18002 ft 340 kts 274°
2026-05-03 23:07 53.74174 -4.78547 18002 ft 341 kts 275°
2026-05-03 23:08 53.74308 -4.82545 18002 ft 341 kts 275°
2026-05-03 23:08 53.74442 -4.86545 18005 ft 341 kts 275°
2026-05-03 23:08 53.74576 -4.90549 18008 ft 341 kts 275°
2026-05-03 23:08 53.74708 -4.94553 18008 ft 341 kts 275°
2026-05-03 23:09 53.74833 -4.98501 18011 ft 341 kts 274°
2026-05-03 23:09 53.74957 -5.02500 18013 ft 341 kts 275°
2026-05-03 23:09 53.75083 -5.06501 18013 ft 341 kts 275°
2026-05-03 23:09 53.75203 -5.10505 18013 ft 341 kts 273°
2026-05-03 23:10 53.75040 -5.14511 18013 ft 344 kts 262°
2026-05-03 23:10 53.74433 -5.18423 18014 ft 345 kts 252°
2026-05-03 23:10 53.73646 -5.22253 18019 ft 345 kts 252°
2026-05-03 23:10 53.72867 -5.26073 18012 ft 344 kts 252°
2026-05-03 23:11 53.72089 -5.29909 17763 ft 345 kts 253°
2026-05-03 23:11 53.71325 -5.33685 17495 ft 344 kts 252°
2026-05-03 23:11 53.70554 -5.37491 17233 ft 342 kts 252°
2026-05-03 23:11 53.69783 -5.41271 16965 ft 339 kts 252°
2026-05-03 23:12 53.69015 -5.45027 16711 ft 338 kts 252°
2026-05-03 23:12 53.68247 -5.48780 16441 ft 338 kts 253°
2026-05-03 23:12 53.67657 -5.52593 16179 ft 335 kts 259°
2026-05-03 23:12 53.67161 -5.56425 15926 ft 333 kts 259°
2026-05-03 23:13 53.66665 -5.60232 15669 ft 332 kts 259°
2026-05-03 23:13 53.66170 -5.64020 15420 ft 330 kts 259°
2026-05-03 23:13 53.65680 -5.67738 15181 ft 327 kts 259°
2026-05-03 23:13 53.65189 -5.71460 14830 ft 324 kts 259°
2026-05-03 23:14 53.64700 -5.75167 14439 ft 323 kts 258°
2026-05-03 23:14 53.64213 -5.78859 14042 ft 323 kts 259°
2026-05-03 23:14 53.63723 -5.82548 13624 ft 322 kts 258°
2026-05-03 23:14 53.63233 -5.86225 13214 ft 321 kts 259°
2026-05-03 23:15 53.62744 -5.89878 12816 ft 319 kts 258°
2026-05-03 23:15 53.62259 -5.93506 12421 ft 317 kts 258°
2026-05-03 23:15 53.61781 -5.97088 12190 ft 309 kts 258°
2026-05-03 23:15 53.61320 -6.00542 11845 ft 306 kts 258°
2026-05-03 23:16 53.60852 -6.04033 11450 ft 305 kts 259°
2026-05-03 23:16 53.60395 -6.07525 11106 ft 307 kts 260°
2026-05-03 23:16 53.59999 -6.11068 10856 ft 308 kts 261°
2026-05-03 23:16 53.59639 -6.14611 10616 ft 305 kts 261°
2026-05-03 23:17 53.59297 -6.18090 10365 ft 298 kts 262°
2026-05-03 23:17 53.58957 -6.21515 10123 ft 295 kts 261°
2026-05-03 23:17 53.58616 -6.24913 9918 ft 293 kts 262°
2026-05-03 23:17 53.58276 -6.28247 9792 ft 293 kts 261°
2026-05-03 23:18 53.57927 -6.31626 9661 ft 292 kts 261°
2026-05-03 23:18 53.57576 -6.34986 9524 ft 291 kts 261°
2026-05-03 23:18 53.57224 -6.38332 9388 ft 290 kts 261°
2026-05-03 23:18 53.56875 -6.41656 9091 ft 287 kts 261°
2026-05-03 23:19 53.56527 -6.44954 8684 ft 286 kts 261°
2026-05-03 23:19 53.56177 -6.48231 8269 ft 284 kts 261°
2026-05-03 23:19 53.55831 -6.51460 7838 ft 284 kts 261°
2026-05-03 23:19 53.55484 -6.54724 7406 ft 283 kts 261°
2026-05-03 23:20 53.55138 -6.57985 6960 ft 283 kts 261°
2026-05-03 23:20 53.54760 -6.61240 6509 ft 284 kts 255°
2026-05-03 23:20 53.53869 -6.64195 6041 ft 285 kts 231°
2026-05-03 23:20 53.52381 -6.66352 5535 ft 284 kts 208°
2026-05-03 23:21 53.50546 -6.67337 5100 ft 268 kts 181°
2026-05-03 23:21 53.48817 -6.67035 5035 ft 235 kts 159°
2026-05-03 23:21 53.47418 -6.65901 4978 ft 219 kts 140°
2026-05-03 23:21 53.46329 -6.64157 4630 ft 217 kts 122°
2026-05-03 23:22 53.45388 -6.59592 4003 ft 207 kts 91°
2026-05-03 23:22 53.45264 -6.57187 3721 ft 206 kts 91°
2026-05-03 23:22 53.45141 -6.54799 3447 ft 205 kts 91°
2026-05-03 23:23 53.45019 -6.52466 3170 ft 196 kts 91°
2026-05-03 23:23 53.44902 -6.50264 2905 ft 181 kts 91°
2026-05-03 23:23 53.44796 -6.48260 2677 ft 166 kts 91°
2026-05-03 23:23 53.44696 -6.46339 2478 ft 169 kts 91°
2026-05-03 23:24 53.44595 -6.44439 2256 ft 159 kts 92°
2026-05-03 23:24 53.44500 -6.42669 2023 ft 148 kts 91°
2026-05-03 23:24 53.44412 -6.41040 1827 ft 134 kts 91°
2026-05-03 23:24 53.44331 -6.39512 1636 ft 130 kts 91°
2026-05-03 23:25 53.44251 -6.38005 1458 ft 130 kts 91°
2026-05-03 23:25 53.44171 -6.36498 1280 ft 130 kts 92°
2026-05-03 23:25 53.44090 -6.34998 1094 ft 129 kts 92°
2026-05-03 23:25 53.44005 -6.33494 890 ft 129 kts 92°
2026-05-03 23:26 53.43913 -6.32008 739 ft 129 kts 91°
2026-05-03 23:26 53.43833 -6.30512 573 ft 129 kts 91°
2026-05-03 23:26 53.43758 -6.29038 403 ft 128 kts 90°
2026-05-03 23:26 53.43685 -6.27551 266 ft 127 kts 91°
2026-05-03 23:27 53.43613 -6.26130 213 ft 112 kts 94°
2026-05-03 23:27 53.43577 -6.25217 218 ft 36 kts 96°
2026-05-03 23:27 53.43553 -6.24929 212 ft 24 kts 97°
2026-05-03 23:27 53.43532 -6.24634 214 ft 19 kts 99°
2026-05-03 23:28 53.43464 -6.24554 217 ft 10 kts 182°
2026-05-03 23:28 53.43388 -6.24567 213 ft 11 kts 197°
2026-05-03 23:28 53.43361 -6.24668 211 ft 10 kts 279°
2026-05-03 23:28 53.43372 -6.24778 211 ft 11 kts 274°
2026-05-03 23:29 53.43379 -6.25030 211 ft 27 kts 273°
2026-05-03 23:29 53.43392 -6.25271 211 ft 18 kts 274°
2026-05-03 23:29 53.43404 -6.25443 215 ft 12 kts 277°
2026-05-03 23:29 53.43409 -6.25580 211 ft 9 kts 271°
2026-05-03 23:30 53.43376 -6.25647 211 ft 8 kts 198°
2026-05-03 23:30 53.43330 -6.25631 213 ft 6 kts 158°
2026-05-03 23:30 53.43269 -6.25586 211 ft 12 kts 156°
2026-05-03 23:30 53.43199 -6.25534 211 ft 10 kts 155°
2026-05-03 23:31 53.43141 -6.25491 211 ft 9 kts 156°
2026-05-03 23:31 53.43053 -6.25429 211 ft 22 kts 158°
2026-05-03 23:31 53.42916 -6.25329 213 ft 19 kts 156°
2026-05-03 23:31 53.42825 -6.25262 211 ft 8 kts 154°
2026-05-03 23:32 53.42794 -6.25199 211 ft 7 kts 105°
2026-05-03 23:32 53.42793 -6.25108 211 ft 9 kts 93°
2026-05-03 23:32 53.42766 -6.25011 215 ft 10 kts 130°
2026-05-03 23:32 53.42702 -6.24937 211 ft 12 kts 155°
2026-05-03 23:33 53.42616 -6.24880 216 ft 14 kts 158°
2026-05-03 23:33 53.42519 -6.24808 214 ft 16 kts 156°
2026-05-03 23:33 53.42427 -6.24726 215 ft 13 kts 126°
2026-05-03 23:33 53.42440 -6.24575 211 ft 14 kts 63°
2026-05-03 23:34 53.42495 -6.24441 215 ft 13 kts 42°
2026-05-03 23:34 53.42555 -6.24406 211 ft 8 kts 335°
2026-05-03 23:34 53.42599 -6.24451 215 ft 6 kts 328°
2026-05-03 23:34 53.42622 -6.24477 211 ft 4 kts 327°
2026-05-03 23:35 53.42624 -6.24478 211 ft 0 kts 327°
2026-05-03 23:39 53.42623 -6.24477 211 ft 0 kts 324°